星链-4563 (STARLINK-4563 )

导读 | 星芒AI

STARLINK-4563 是 SpaceX Starlink 项目中的一颗低轨通信卫星,属于该星座的众多组网卫星之一。它运行在约 550 公里的近地轨道上,旨在为全球用户提供高速互联网服务。该卫星采用先进的相控阵天线和激光通信技术,支持高带宽、低延迟的数据传输。STARLINK-4563 的发射和运行有助于增强 Starlink 网络的覆盖范围和稳定性,特别是在偏远和网络基础设施薄弱的地区。

基本信息
目录编号:
53561
目录名称:
STARLINK-4563
国际标识:
2022-101AL
轨道中心:
EARTH
卫星名称:
星链-4563
卫星全名:
星链-4563 (STARLINK-4563 )
卫星状态:
在轨 (已飞行1220 天)
发射日期:
2022-08-19 UTC
国别 :
美国 (US)
星等 :
--
轨道信息
数据来源 国际轨道数据 AOE轨道数据
星历时间 2025-12-20T18:11:49+0800
22小时前
查看轨道信息
2025-12-17T09:00:00+0800
4天前
查看轨道信息
半长轴 6917.885km 6917.825km
偏心率 0.0001303 0.0001285
轨道倾角 53.218° 53.214°
近地点辐角 83.417° 73.108°
升交点赤经 59.953° 75.141°
平近点角 276.697° 260.120°
近地点 538.846km 538.801km
远地点 540.65km 540.579km
周期 95.438分钟 95.436分钟
每日圈数 15.088386 15.088583
详细信息
固有亮度:
5
最大亮度:
2.5
卫星平台:
Starlink v1.5
覆盖范围:
全球
运营商:
太空探索技术公司
运营商所在国:
美国
制造商(研发单位):
太空探索技术公司
制造商所在国:
美国
使用方式:
暂无
卫星简介
星链(Starlink)计划是由太空探索技术公司(SpaceX)提出的一个巨型低轨卫星互联网星座项目,计划在2019年至2024年间在太空搭建由约1.2万颗卫星组成的“星链”网络,其中1584颗将部署在地球上空550千米处的近地轨道,并从2020年开始工作。该卫星仍在工作。
2D轨道图
3D轨道图
轨道高度分析图
轨道倾角分析图
轨道综合分析图
查看轨道综合分析图